Tracking 19709 objects as of 19-Jun-2019
HD Live streaming from Space Station
objects crossing your sky now

COSMOS 1989 (ETALON 1)

Track COSMOS 1989 (ETALON 1) now!
COSMOS 1989 (ETALON 1) is classified as:


NORAD ID: 19751
Int'l Code: 1989-001C
Perigee: 19,076.0 km
Apogee: 19,189.4 km
Inclination: 64.2 °
Period: 675.6 minutes
Semi major axis: 25503 km
RCS: 1.0844 m2 (large)
Launch date: January 10, 1989
Source: Commonwealth of Independent States (former USSR) (CIS)
Launch site: TYURATAM MISSILE AND SPACE COMPLEX (TTMTR)
aabbcc
Your satellite tracking list
Your tracking list is empty




NASA's NSSDC Master Catalog

Two Line Element Set (TLE):
1 19751U 89001C   19169.32511326  .00000037  00000-0  00000+0 0  9999
2 19751  64.1620 159.9826 0022226 210.4268 124.2576  2.13156392236955
Source of the keplerian elements: AFSPC